sat.trackr.live / text

‹ back to catalog

STARLINK-30493

NORAD 58116 · 2023-161V

PAYLOAD ACTIVE UNKNOWN

§ Identity

Operator
Country
US
Launch date
2023-10-21
Launch site
AFWTR
Launch vehicle
Mass (kg)
RCS (m²)

Purposes: comms

External: N2YO · Heavens-Above · Gunter

§ Orbital elements

Epoch: 2026-05-25T01:43:30.090720Z

Period
94.11 min
Inclination
53.1593°
Eccentricity
0.0001284
Mean motion
15.30184153 rev/d
Perigee alt
474.4 km
Apogee alt
476.1 km
Semi-major
6,853.4 km
B*
-2.1121e-5
RAAN
170.9168°
Arg perigee
78.4870°
Mean anomaly
281.6275°
Rev number
14,611

§ Raw data

STARLINK-304931 58116U 23161V   26145.07187605 -.00000984  00000+0 -21121-4 0  99992 58116  53.1593 170.9168 0001284  78.4870 281.6275 15.30184153146115

JSON: /api/v1/satellites/58116 · /tle

For live sub-satellite position, see the globe view (requires WebGL).

§ Visibility from observer

Set your observer location to see the next 7 days of passes ≥ 10°. The values pass through the URL so the page stays shareable.

No JS? Fill the form by hand. The geolocation button needs JavaScript.